Home > Weather > Remscheid > Past weeks

Flag for Germany Weather for the Past 2 Weeks in Remscheid, North Rhine-Westphalia, Germany

Now
39 °F

Clear.


Feels Like: 39 °F
Forecast: 50 / 70 °F
Wind: 2 mph from Southeast

Location: Duesseldorf

Current Time: May 5, 2016 at 5:43:24 AM

Latest Report: May 5, 2016 at 5:20 AM


Visibility: 10 mi

Pressure: 30.33 "Hg

Humidity: 81%

Dew Point: 34 °F

Location of RemscheidLocation

Historic Weather in Remscheid — Graph

°F

Remscheid Temperature Yesterday

Maximum temperature yesterday: 61 °F (at 3:50 PM)
Minimum temperature yesterday: 34 °F (at 6:20 AM)
Average temperature yesterday: 49 °F

High & Low Weather Summary for the Past Weeks

 TemperatureHumidityPressure
High68 °F (Apr 21, 3:50 PM)100% (Apr 20, 4:20 AM)30.48 "Hg (Apr 20, 4:20 AM)
Low32 °F (Apr 20, 4:50 AM)31% (May 4, 6:20 PM)29.50 "Hg (Apr 26, 8:20 AM)
Average47 °F72%30.05 "Hg
* Reported Apr 20 4:20 AM — May 5 4:20 AM, Remscheid, Weather by CustomWeather, © 2016

Note: Actual official high and low records may vary slightly from our data, if they occured in-between our weather recording intervals... More about our weather records

Advertising

Remscheid Weather History for the Previous 24 Hours

Scroll right to see more
 ConditionsComfort  
Time TempWeatherWind HumidityBarometerVisibility
4:20 AM
Thu, May 5
41 °FClear.5 mph76%30.33 "Hg10 mi
3:50 AM41 °FClear.3 mph81%30.33 "Hg10 mi
3:20 AM43 °FPassing clouds.3 mph76%30.33 "HgN/A
2:50 AM45 °FClear.5 mph66%30.33 "Hg10 mi
2:20 AM46 °FClear.5 mph62%30.33 "Hg10 mi
1:50 AM45 °FClear.6 mph66%30.33 "Hg10 mi
1:20 AM46 °FClear.8 mph66%30.33 "Hg10 mi
12:50 AM45 °FClear.7 mph66%30.33 "Hg10 mi
12:20 AM46 °FClear.8 mph66%30.33 "Hg10 mi
11:50 PM
Wed, May 4
46 °FClear.8 mph66%30.33 "Hg10 mi
11:20 PM48 °FClear.8 mph62%30.33 "Hg10 mi
10:50 PM46 °FClear.7 mph66%30.33 "Hg10 mi
10:20 PM50 °FClear.6 mph54%30.33 "Hg10 mi
9:50 PM52 °FSunny.6 mph47%30.33 "Hg10 mi
9:20 PM54 °FSunny.6 mph41%30.33 "Hg10 mi
8:50 PM55 °FSunny.7 mph38%30.33 "Hg10 mi
8:20 PM57 °FSunny.7 mph36%30.33 "Hg10 mi
7:50 PM57 °FSunny.7 mph39%30.33 "Hg10 mi
7:20 PM59 °FSunny.8 mph36%30.33 "Hg10 mi
6:50 PM59 °FPassing clouds.7 mph34%30.33 "HgN/A
6:20 PM61 °FPassing clouds.7 mph31%30.33 "HgN/A
5:50 PM61 °FPassing clouds.8 mph36%30.33 "HgN/A
5:20 PM61 °FPassing clouds.8 mph36%30.36 "HgN/A
4:50 PM61 °FPassing clouds.6 mph36%30.36 "HgN/A
4:20 PM61 °FSunny.5 mph45%30.36 "Hg10 mi
3:50 PM61 °FSunny.7 mph42%30.36 "Hg10 mi
3:20 PM59 °FPassing clouds.7 mph39%30.36 "HgN/A
2:50 PM59 °FPassing clouds.8 mph39%30.39 "HgN/A
2:20 PM59 °FSunny.7 mph39%30.39 "Hg10 mi
1:50 PM57 °FSunny.5 mph39%30.39 "Hg10 mi
1:20 PM55 °FPassing clouds.9 mph47%30.39 "HgN/A
12:50 PM57 °FSunny.7 mph41%30.39 "Hg10 mi
12:20 PM55 °FPassing clouds.6 mph41%30.39 "HgN/A
11:50 AM55 °FPassing clouds.6 mph44%30.42 "HgN/A
11:20 AM54 °FSunny.5 mph44%30.42 "Hg10 mi
10:50 AM55 °FPassing clouds.2 mph51%30.42 "HgN/A
10:20 AM54 °FPassing clouds.5 mph54%30.42 "HgN/A
9:50 AM52 °FPassing clouds.3 mph62%30.42 "HgN/A
9:20 AM50 °FPassing clouds.5 mph67%30.42 "HgN/A
8:50 AM50 °FPassing clouds.2 mph71%30.42 "HgN/A
8:20 AM48 °FSunny.1 mph76%30.42 "Hg10 mi
7:50 AM43 °FSunny.2 mph87%30.42 "Hg10 mi
7:20 AM39 °FPassing clouds.2 mph93%30.39 "HgN/A
6:50 AM37 °FPassing clouds.2 mph93%30.39 "HgN/A
6:20 AM34 °FPassing clouds.2 mph100%30.39 "HgN/A
5:50 AM36 °FFog.1 mph93%30.39 "HgN/A
5:20 AM36 °FClear.2 mph93%30.39 "Hg10 mi
Weather by CustomWeather, © 2016

See weather overviewHow to use our weather pages